Regional Weather Roundup
Issued by NWS Newport/Morehead, NC

Current Version | Previous Version | Text Only | Print | Product List | Glossary On
Versions: 1 2 3 4 5 6 7 8 9 10 11 12 13 14 15 16 17 18 19 20 21 22 23 24 25 26 27 28 29 30 31 32 33 34 35 36 37 38 39 40 41 42 43 44 45 46 47 48 49 50
557 ASUS42 KMHX 132213 RWRMHX WEATHER ROUNDUP FOR EASTERN NORTH CAROLINA NATIONAL WEATHER SERVICE NEWPORT/MOREHEAD CITY NC 500 PM EST WED DEC 13 2017 NOTE: "FAIR" INDICATES FEW OR NO CLOUDS BELOW 12,000 FEET WITH NO SIGNIFICANT WEATHER AND/OR OBSTRUCTIONS TO VISIBILITY NCZ015>017-031-032-045>047-102-103-132300- NORTH COAST CITY SKY/WX TMP DP RH WIND PRES REMARKS EDENTON PTCLDY 40 12 32 W10 29.87F ELIZABETH CITY MOCLDY 36 13 38 W7 29.86F KITTY HAWK CLEAR 36 13 38 W6 29.86S MANTEO CLEAR 37 13 37 W6 29.88S $$ NCZ045>047-081-094-103-104-132300- CENTRAL COAST CITY SKY/WX TMP DP RH WIND PRES REMARKS FRISCO CLEAR 39 19 44 W9G17 29.90R $$ NCZ095-097-098-100-101-132300- SOUTHERN COAST CITY SKY/WX TMP DP RH WIND PRES REMARKS BEAUFORT CLEAR 40 15 36 W7 29.91S CEDAR ISLAND NOT AVBL JACKSONVILLE CLEAR 42 15 33 SW3 29.90S PINEY ISLAND N/A N/A N/A N/A W8 29.90S WILMINGTON CLEAR 43 18 36 SW6 29.91F $$ NCZ011>013-027>030-043-044-078>080-089-090>093-098-132300- COASTAL PLAIN CITY SKY/WX TMP DP RH WIND PRES REMARKS AHOSKIE CLOUDY 37 11 34 CALM 29.85F CLINTON CLEAR 44 17 33 S3 29.89S ELIZABETHTOWN NOT AVBL GOLDSBORO CLEAR 41 12 30 SW5 29.85F GREENVILLE CLEAR 37 10 32 W3 29.90F HAVELOCK CLEAR 39 16 39 W8 29.92S KENANSVILLE CLEAR 41 16 36 SW3 29.89S KINSTON CLEAR 37 16 41 S5 29.89F NEW BERN CLEAR 37 14 38 SW5 29.91F RICHLANDS CLEAR 39 18 42 S3 29.90S ROCKY MOUNT CLEAR 37 15 40 S3 29.85F WASHINGTON CLEAR 38 11 32 SW5 29.88F WHITEVILLE CLEAR 45 16 31 SW6 29.90F $$ AMZ130-135-150-152-154-156-158-170-250-252-270-ANZ085-086-088-633-658-670-132300- MARINE OBSERVATIONS STATION/POSITION TIME TEMP WIND PRES WAVE SWELL AIR SEA DIR/SP/G HT/PER HT/PER (UTC) (F) (DEG/KT/KT) (MB) (FT/S) (FT/S) CHESAPEAKE LIGHT NOT AVBL 64 E VA BEACH 2150 39 58 260/ 16/ 21 1010.7 6/ 6 2/11 DUCK 2148 38 54 270/ 10/ 16 1010.8 2 E DUCK 2200 56 N/A 2/ 5 OREGON INLET 2142 38 44 260/ 7/ 12 1011.6 13E OREGON INLT 2148 56 N/A 5/ 7 5/ 7 HATTERAS CG 2148 40 49 280/ 16/ 19 1012.1 DIAMOND BUOY 2150 44 74 290/ 14/ 19 1012.4 5/ 8 3/ 8 CAPE LOOKOUT 2100 270/ 8/ 11 1013.1 BEAUFORT LAB 2148 42 51 290/ 4/ 7 1012.9 30 SE NEW RVR IN 2108 46 63 260/ 10/ 16 1013.3 30 SE NEW RVR IN 2200 63 N/A 4/ 8 27 SE WRIGHTSVLE 2108 47 65 280/ 12/ 17 1013.4 5 SE WRIGHTSVLE 2108 46 57 280/ 10/ 14 1013.0 225 S CAPE HAT 2050 57 75 310/ 12/ 19 1013.5 11/10 10/10 41 SE CHARLESTON 2150 74 230/ 6/ 10 1014.2 2/ 6 2/ 6 $$

USA.gov is the U.S. government's official web portal to all federal, state and local government web resources and services.